Location: Casco Millpond
(44.5581°N, 87.6111°W)
Time: 21:02:45
(UTC+00:00)

NOSS 3-4 (C) - Pass Details

Date: 16 January 2026
Orbit: 773 x 1438 km, 63.4° (Epoch: 26 December)

Event Time Altitude Azimuth Distance (km) Brightness Sun altitude
Rises 23:32:37 0° 217° (SW) 3,236 7.3 -9.7°
Reaches altitude 10° 23:34:57 10° 218° (SW) 2,321 6.5 -10.1°
Maximum altitude 23:40:12 85° 307° (NW) 820 3.2 -11.0°
Drops below altitude 10° 23:46:00 10° 37° (NE) 2,549 5.2 -12.0°
Enters shadow 23:46:11 - 37° (NE) 2,619 5.3 -12.0°
